Volver al catálogo

COSMOS 411

ActivoMilitarLEO
NORAD 5210·PAYLOAD·🇷🇺 Russia

Lanzado May 7, 1971 desde Plesetsk Cosmodrome

Loading…

Próximos Pases (próximas 24 horas)

TLE

ActualizadoSource: Space-Track

Época: Sep 14, 2026, 03:26 UTC

1 05210U 71041A   26257.14360339  .00000007  00000-0  12462-3 0  9997
2 05210  74.0162 160.7067 0112361 210.0049 220.7764 12.65000434556118

Sigue COSMOS 411 en tiempo real con AllMySat

Download on the App Store